| time (UTC) | temp C | wind direction | speed KPH | gust KPH | rain 1hr cm | rain 24hr cm | rain mn cm | humidity % | barometer mb |
| 20260506143830 | 20 | 324 | 0.0 | 11.3 | 0.00 | 0.05 | 0.03 | 53 | |
| 20260506143330 | 20 | 77 | 0.0 | 8.0 | 0.00 | 0.05 | 0.03 | 54 | |
| 20260506142830 | 20 | 307 | 0.0 | 6.4 | 0.00 | 0.05 | 0.03 | 56 | |
| 20260506142330 | 19 | 357 | 0.0 | 6.4 | 0.00 | 0.05 | 0.03 | 55 | |
| 20260506141830 | 19 | 338 | 0.0 | 3.2 | 0.00 | 0.05 | 0.03 | 56 | |
| 20260506141330 | 18 | 267 | 0.0 | 4.8 | 0.00 | 0.05 | 0.03 | 56 | |
| 20260506140830 | 18 | 8 | 4.8 | 6.4 | 0.00 | 0.05 | 0.03 | 57 | |
| 20260506140330 | 18 | 82 | 1.6 | 9.7 | 0.00 | 0.05 | 0.03 | 56 | |
| 20260506135830 | 18 | 1 | 0.0 | 6.4 | 0.00 | 0.05 | 0.03 | 58 | |
| 20260506135330 | 18 | 94 | 0.0 | 1.6 | 0.00 | 0.05 | 0.03 | 59 | |
| 20260506134830 | 17 | 40 | 0.0 | 9.7 | 0.00 | 0.05 | 0.03 | 59 | |
| 20260506134330 | 17 | 18 | 1.6 | 4.8 | 0.00 | 0.05 | 0.03 | 60 | |
| 20260506133830 | 18 | 85 | 0.0 | 6.4 | 0.00 | 0.05 | 0.03 | 61 | |
| 20260506133330 | 18 | 330 | 0.0 | 4.8 | 0.00 | 0.05 | 0.03 | 61 | |
| 20260506132830 | 18 | 275 | 0.0 | 8.0 | 0.00 | 0.05 | 0.03 | 62 | |
| 20260506132331 | 17 | 343 | 3.2 | 3.2 | 0.00 | 0.05 | 0.03 | 62 | |
| 20260506131831 | 18 | 29 | 0.0 | 4.8 | 0.00 | 0.05 | 0.03 | 62 | |
| 20260506131331 | 17 | 337 | 0.0 | 6.4 | 0.00 | 0.05 | 0.03 | 62 | |
| 20260506130831 | 17 | 286 | 0.0 | 9.7 | 0.00 | 0.05 | 0.03 | 63 | |
| 20260506130331 | 17 | 1 | 0.0 | 6.4 | 0.00 | 0.05 | 0.03 | 63 | |
| 20260506125831 | 17 | 329 | 0.0 | 9.7 | 0.00 | 0.05 | 0.03 | 65 | |
| 20260506125331 | 17 | 286 | 0.0 | 6.4 | 0.00 | 0.05 | 0.03 | 66 | |
| 20260506124831 | 16 | 338 | 0.0 | 6.4 | 0.00 | 0.05 | 0.03 | 66 | |
| 20260506124331 | 17 | 348 | 3.2 | 8.0 | 0.03 | 0.05 | 0.03 | 65 | |
| 20260506123831 | 16 | 268 | 0.0 | 4.8 | 0.03 | 0.05 | 0.03 | 64 | |
| 20260506123331 | 17 | 334 | 0.0 | 9.7 | 0.03 | 0.05 | 0.03 | 63 | |
| 20260506122831 | 17 | 16 | 0.0 | 9.7 | 0.03 | 0.05 | 0.03 | 62 | |
| 20260506122331 | 17 | 337 | 0.0 | 1.6 | 0.03 | 0.05 | 0.03 | 63 | |
| 20260506121831 | 17 | 60 | 0.0 | 8.0 | 0.03 | 0.05 | 0.03 | 63 | |
| 20260506121331 | 17 | 94 | 4.8 | 8.0 | 0.03 | 0.05 | 0.03 | 61 | |
| 20260506120831 | 17 | 319 | 0.0 | 9.7 | 0.03 | 0.05 | 0.03 | 61 | |
| 20260506120331 | 18 | 327 | 1.6 | 11.3 | 0.03 | 0.05 | 0.03 | 62 | |
| 20260506115831 | 17 | 25 | 3.2 | 6.4 | 0.03 | 0.05 | 0.03 | 62 | |
| 20260506115331 | 17 | 272 | 0.0 | 6.4 | 0.03 | 0.05 | 0.03 | 61 | |
| 20260506114831 | 17 | 340 | 3.2 | 6.4 | 0.03 | 0.05 | 0.03 | 62 | |
| 20260506114331 | 17 | 61 | 3.2 | 9.7 | 0.00 | 0.03 | 0.00 | 63 | |
| 20260506113831 | 17 | 68 | 0.0 | 9.7 | 0.00 | 0.03 | 0.00 | 65 | |
| 20260506113331 | 18 | 35 | 0.0 | 8.0 | 0.00 | 0.03 | 0.00 | 64 | |
| 20260506112831 | 17 | 73 | 1.6 | 11.3 | 0.00 | 0.03 | 0.00 | 67 | |
| 20260506112331 | 17 | 310 | 1.6 | 9.7 | 0.00 | 0.03 | 0.00 | 68 | |
| 20260506111831 | 17 | 337 | 8.0 | 9.7 | 0.00 | 0.03 | 0.00 | 68 | |
| 20260506111331 | 17 | 317 | 0.0 | 11.3 | 0.00 | 0.03 | 0.00 | 68 | |
| 20260506110831 | 17 | 37 | 0.0 | 11.3 | 0.00 | 0.03 | 0.00 | 68 | |
| 20260506110331 | 17 | 52 | 6.4 | 6.4 | 0.00 | 0.03 | 0.00 | 71 | |
| 20260506105831 | 16 | 347 | 0.0 | 8.0 | 0.00 | 0.03 | 0.00 | 71 | |
| 20260506105331 | 16 | 78 | 3.2 | 14.5 | 0.00 | 0.03 | 0.00 | 71 | |
| 20260506104831 | 16 | 337 | 4.8 | 11.3 | 0.00 | 0.03 | 0.00 | 71 | |
| 20260506104331 | 16 | 43 | 0.0 | 12.9 | 0.00 | 0.03 | 0.00 | 72 | |
| 20260506103831 | 15 | 310 | 0.0 | 9.7 | 0.00 | 0.03 | 0.00 | 77 | |
| 20260506103331 | 15 | 345 | 0.0 | 9.7 | 0.00 | 0.03 | 0.00 | 78 | |
| 20260506102831 | 15 | 154 | 0.0 | 4.8 | 0.00 | 0.03 | 0.00 | 81 | |
| 20260506102331 | 13 | 7 | 0.0 | 4.8 | 0.00 | 0.03 | 0.00 | 83 | |
| 20260506101831 | 13 | 16 | 0.0 | 4.8 | 0.00 | 0.03 | 0.00 | 83 | |
| 20260506101331 | 12 | 1 | 0.0 | 6.4 | 0.00 | 0.03 | 0.00 | 83 | |
| 20260506100831 | 12 | 319 | 0.0 | 8.0 | 0.00 | 0.03 | 0.00 | 83 | |
| 20260506100331 | 12 | 15 | 0.0 | 3.2 | 0.00 | 0.03 | 0.00 | 83 | |
| 20260506095831 | 13 | 344 | 0.0 | 1.6 | 0.00 | 0.03 | 0.00 | 84 | |
| 20260506095331 | 12 | 326 | 0.0 | 8.0 | 0.00 | 0.03 | 0.00 | 84 | |
| 20260506094831 | 13 | 2 | 0.0 | 4.8 | 0.00 | 0.03 | 0.00 | 85 | |
| 20260506094331 | 12 | 345 | 3.2 | 3.2 | 0.00 | 0.03 | 0.00 | 85 | |
| 20260506093831 | 12 | 354 | 0.0 | 0.0 | 0.00 | 0.03 | 0.00 | 84 | |
| 20260506093331 | 12 | 354 | 0.0 | 0.0 | 0.00 | 0.03 | 0.00 | 85 | |
| 20260506092831 | 12 | 354 | 0.0 | 6.4 | 0.00 | 0.03 | 0.00 | 85 | |
| 20260506092331 | 12 | 315 | 0.0 | 3.2 | 0.00 | 0.03 | 0.00 | 86 | |
| 20260506091831 | 12 | 302 | 0.0 | 3.2 | 0.00 | 0.03 | 0.00 | 85 | |
| 20260506091331 | 12 | 316 | 1.6 | 1.6 | 0.00 | 0.03 | 0.00 | 85 | |
| 20260506090831 | 12 | 316 | 0.0 | 4.8 | 0.00 | 0.03 | 0.00 | 85 | |
| 20260506090331 | 12 | 1 | 0.0 | 3.2 | 0.00 | 0.03 | 0.00 | 85 | |
| 20260506085831 | 12 | 305 | 0.0 | 9.7 | 0.00 | 0.03 | 0.00 | 85 | |
| 20260506085331 | 11 | 21 | 0.0 | 9.7 | 0.00 | 0.03 | 0.00 | 84 | |
| 20260506084831 | 12 | 350 | 0.0 | 4.8 | 0.00 | 0.03 | 0.00 | 84 | |
| 20260506084331 | 11 | 15 | 0.0 | 9.7 | 0.00 | 0.03 | 0.00 | 84 | |
| 20260506083831 | 12 | 25 | 0.0 | 0.0 | 0.00 | 0.03 | 0.00 | 85 | |
| 20260506083331 | 12 | 25 | 0.0 | 4.8 | 0.00 | 0.03 | 0.00 | 85 | |
| 20260506082831 | 12 | 312 | 0.0 | 3.2 | 0.00 | 0.03 | 0.00 | 85 | |
| 20260506082331 | 12 | 15 | 0.0 | 9.7 | 0.00 | 0.03 | 0.00 | 85 | |
| 20260506081831 | 11 | 4 | 0.0 | 8.0 | 0.00 | 0.03 | 0.00 | 85 | |
| 20260506081331 | 12 | 33 | 0.0 | 8.0 | 0.00 | 0.03 | 0.00 | 85 | |
| 20260506080831 | 12 | 329 | 0.0 | 6.4 | 0.00 | 0.03 | 0.00 | 85 | |
| 20260506080331 | 11 | 354 | 0.0 | 6.4 | 0.00 | 0.03 | 0.00 | 85 | |
| 20260506073331 | 12 | 16 | 0.0 | 0.0 | 0.00 | 0.03 | 0.00 | 84 | |
| 20260506072831 | 12 | 16 | 0.0 | 11.3 | 0.00 | 0.03 | 0.00 | 84 | |
| 20260506072331 | 12 | 343 | 0.0 | 4.8 | 0.00 | 0.03 | 0.00 | 85 | |
| 20260506071831 | 12 | 295 | 0.0 | 4.8 | 0.00 | 0.03 | 0.00 | 85 | |
| 20260506071331 | 12 | 357 | 0.0 | 8.0 | 0.00 | 0.03 | 0.00 | 86 | |
| 20260506070831 | 12 | 343 | 0.0 | 6.4 | 0.00 | 0.03 | 0.00 | 86 | |
| 20260506070331 | 12 | 111 | 1.6 | 6.4 | 0.00 | 0.03 | 0.00 | 86 | |
| 20260506062331 | 12 | 19 | 0.0 | 3.2 | 0.00 | 0.03 | 0.00 | 88 | |
| 20260506061831 | 12 | 340 | 0.0 | 4.8 | 0.00 | 0.03 | 0.00 | 88 | |
| 20260506061331 | 12 | 288 | 0.0 | 0.0 | 0.00 | 0.03 | 0.00 | 88 | |
| 20260506060831 | 12 | 288 | 0.0 | 0.0 | 0.00 | 0.03 | 0.00 | 88 | |
| 20260506060331 | 12 | 288 | 0.0 | 0.0 | 0.00 | 0.03 | 0.00 | 88 | |
| 20260506051331 | 12 | 291 | 0.0 | 0.0 | 0.00 | 0.03 | 0.00 | 89 | |
| 20260506050831 | 11 | 288 | 0.0 | 1.6 | 0.00 | 0.03 | 0.00 | 89 | |
| 20260506050331 | 11 | 330 | 0.0 | 1.6 | 0.00 | 0.03 | 0.00 | 89 | |
| 20260506044831 | 11 | 271 | 0.0 | 0.0 | 0.00 | 0.03 | 0.00 | 89 | |
| 20260506044331 | 11 | 271 | 0.0 | 0.0 | 0.00 | 0.03 | 0.00 | 88 | |
| 20260506043831 | 11 | 271 | 0.0 | 4.8 | 0.00 | 0.05 | 0.00 | 89 | |
| 20260506043331 | 12 | 312 | 0.0 | 0.0 | 0.00 | 0.05 | 0.00 | 89 | |
| 20260506042831 | 11 | 312 | 0.0 | 0.0 | 0.00 | 0.05 | 0.00 | 88 | |
| 20260506042331 | 11 | 312 | 0.0 | 0.0 | 0.00 | 0.05 | 0.00 | 88 | |
| 20260506041831 | 11 | 312 | 0.0 | 0.0 | 0.00 | 0.05 | 0.00 | 88 | |
| 20260506041331 | 11 | 312 | 0.0 | 0.0 | 0.00 | 0.05 | 0.00 | 88 | |
| 20260506040831 | 11 | 312 | 0.0 | 0.0 | 0.00 | 0.05 | 0.00 | 88 | |
| 20260506040331 | 11 | 312 | 0.0 | 0.0 | 0.00 | 0.05 | 0.00 | 88 | |
| 20260506035831 | 11 | 312 | 0.0 | 0.0 | 0.00 | 0.05 | 0.00 | 88 | |
| 20260506035331 | 11 | 312 | 0.0 | 0.0 | 0.00 | 0.05 | 0.00 | 88 | |
| 20260506034831 | 11 | 312 | 0.0 | 0.0 | 0.00 | 0.05 | 0.00 | 88 | |
| 20260506034332 | 11 | 312 | 0.0 | 0.0 | 0.00 | 0.05 | 0.00 | 88 | |
| 20260506033831 | 11 | 312 | 0.0 | 0.0 | 0.00 | 0.05 | 0.00 | 88 | |
| 20260506033332 | 11 | 312 | 0.0 | 0.0 | 0.00 | 0.05 | 0.00 | 88 | |
| 20260506032832 | 11 | 312 | 0.0 | 0.0 | 0.00 | 0.05 | 0.00 | 88 | |
| 20260506032332 | 11 | 312 | 0.0 | 0.0 | 0.00 | 0.05 | 0.00 | 88 | |
| 20260506031832 | 11 | 312 | 0.0 | 0.0 | 0.00 | 0.05 | 0.00 | 88 | |
| 20260506031332 | 11 | 312 | 0.0 | 0.0 | 0.00 | 0.05 | 0.00 | 88 | |
| 20260506030832 | 11 | 312 | 0.0 | 4.8 | 0.00 | 0.05 | 0.00 | 88 | |
| 20260506030332 | 12 | 47 | 0.0 | 0.0 | 0.00 | 0.05 | 0.00 | 88 | |
| 20260506025832 | 11 | 47 | 0.0 | 4.8 | 0.00 | 0.05 | 0.00 | 88 | |
| 20260506025332 | 11 | 303 | 0.0 | 0.0 | 0.00 | 0.05 | 0.00 | 88 | |
| 20260506024832 | 12 | 303 | 0.0 | 0.0 | 0.00 | 0.05 | 0.00 | 88 | |
| 20260506024332 | 12 | 303 | 0.0 | 0.0 | 0.00 | 0.05 | 0.00 | 88 | |
| 20260506023832 | 11 | 303 | 0.0 | 0.0 | 0.00 | 0.05 | 0.00 | 88 | |
| 20260506023332 | 11 | 303 | 0.0 | 0.0 | 0.00 | 0.05 | 0.00 | 88 | |
| 20260506022832 | 11 | 303 | 0.0 | 0.0 | 0.00 | 0.05 | 0.00 | 88 | |
| 20260506022332 | 12 | 303 | 0.0 | 0.0 | 0.00 | 0.05 | 0.00 | 88 | |
| 20260506021832 | 12 | 303 | 0.0 | 0.0 | 0.00 | 0.05 | 0.00 | 88 | |
| 20260506021332 | 12 | 303 | 0.0 | 0.0 | 0.00 | 0.05 | 0.00 | 88 | |
| 20260506020832 | 12 | 303 | 0.0 | 0.0 | 0.00 | 0.05 | 0.00 | 88 | |
| 20260506020332 | 11 | 303 | 0.0 | 0.0 | 0.00 | 0.05 | 0.00 | 88 | |
| 20260506015832 | 11 | 303 | 0.0 | 0.0 | 0.00 | 0.05 | 0.00 | 88 | |
| 20260506015332 | 12 | 303 | 0.0 | 0.0 | 0.00 | 0.05 | 0.00 | 88 | |
| 20260506014832 | 11 | 303 | 0.0 | 0.0 | 0.00 | 0.05 | 0.00 | 88 | |
| 20260506014332 | 12 | 303 | 0.0 | 0.0 | 0.00 | 0.05 | 0.00 | 87 | |
| 20260506013832 | 11 | 303 | 0.0 | 0.0 | 0.00 | 0.05 | 0.00 | 87 | |
| 20260506013332 | 12 | 303 | 0.0 | 0.0 | 0.00 | 0.05 | 0.00 | 87 | |
| 20260506012832 | 11 | 303 | 0.0 | 0.0 | 0.00 | 0.05 | 0.00 | 87 | |
| 20260506012332 | 11 | 303 | 0.0 | 0.0 | 0.00 | 0.05 | 0.00 | 87 | |
| 20260506011832 | 12 | 303 | 0.0 | 0.0 | 0.00 | 0.05 | 0.00 | 87 | |
| 20260506011332 | 11 | 303 | 0.0 | 0.0 | 0.00 | 0.05 | 0.00 | 87 | |
| 20260506010832 | 11 | 303 | 0.0 | 0.0 | 0.00 | 0.05 | 0.00 | 87 | |
| 20260506010332 | 11 | 303 | 0.0 | 0.0 | 0.00 | 0.05 | 0.00 | 87 | |
| 20260506005832 | 12 | 303 | 0.0 | 0.0 | 0.00 | 0.05 | 0.00 | 87 | |
| 20260506005332 | 12 | 303 | 0.0 | 0.0 | 0.00 | 0.05 | 0.00 | 86 | |
| 20260506004832 | 11 | 303 | 0.0 | 0.0 | 0.00 | 0.05 | 0.00 | 86 | |
| 20260506004332 | 11 | 303 | 0.0 | 0.0 | 0.00 | 0.05 | 0.00 | 86 | |
| 20260506003832 | 11 | 303 | 0.0 | 0.0 | 0.00 | 0.05 | 0.00 | 86 | |
| 20260506003332 | 11 | 303 | 0.0 | 0.0 | 0.00 | 0.05 | 0.00 | 86 | |
| 20260506002832 | 11 | 303 | 0.0 | 0.0 | 0.00 | 0.05 | 0.00 | 86 | |
| 20260506002332 | 12 | 303 | 0.0 | 0.0 | 0.00 | 0.05 | 0.00 | 86 | |
| 20260506001832 | 12 | 303 | 0.0 | 0.0 | 0.00 | 0.05 | 0.00 | 86 | |
| 20260506001332 | 11 | 303 | 0.0 | 0.0 | 0.00 | 0.05 | 0.00 | 86 | |
| 20260506000832 | 12 | 303 | 0.0 | 0.0 | 0.00 | 0.05 | 0.00 | 86 | |
| 20260506000332 | 12 | 303 | 0.0 | 0.0 | 0.00 | 0.05 | 0.00 | 86 | |
| 20260505235832 | 12 | 303 | 0.0 | 0.0 | 0.00 | 0.05 | 0.00 | 86 | |
| 20260505235332 | 12 | 303 | 0.0 | 0.0 | 0.00 | 0.05 | 0.00 | 86 | |
| 20260505234832 | 12 | 303 | 0.0 | 0.0 | 0.00 | 0.05 | 0.00 | 86 | |
| 20260505234332 | 11 | 303 | 0.0 | 0.0 | 0.00 | 0.05 | 0.00 | 86 | |
| 20260505233832 | 12 | 303 | 0.0 | 0.0 | 0.00 | 0.05 | 0.00 | 86 | |
| 20260505233332 | 12 | 303 | 0.0 | 0.0 | 0.00 | 0.05 | 0.00 | 86 | |
| 20260505232832 | 12 | 303 | 0.0 | 0.0 | 0.00 | 0.05 | 0.00 | 85 | |
| 20260505232332 | 12 | 303 | 0.0 | 0.0 | 0.00 | 0.05 | 0.00 | 86 | |
| 20260505231832 | 12 | 303 | 0.0 | 0.0 | 0.00 | 0.05 | 0.00 | 86 | |
| 20260505231332 | 12 | 303 | 0.0 | 0.0 | 0.00 | 0.05 | 0.00 | 85 | |
| 20260505230832 | 12 | 303 | 0.0 | 0.0 | 0.00 | 0.05 | 0.00 | 86 | |
| 20260505230332 | 12 | 303 | 0.0 | 0.0 | 0.00 | 0.05 | 0.00 | 85 | |
| 20260505225832 | 12 | 303 | 0.0 | 0.0 | 0.00 | 0.05 | 0.00 | 85 | |
| 20260505225332 | 12 | 303 | 0.0 | 0.0 | 0.00 | 0.05 | 0.00 | 85 | |
| 20260505224832 | 12 | 303 | 0.0 | 0.0 | 0.00 | 0.05 | 0.05 | 85 | |
| 20260505224332 | 12 | 303 | 0.0 | 0.0 | 0.00 | 0.05 | 0.05 | 85 | |
| 20260505223832 | 12 | 303 | 0.0 | 0.0 | 0.00 | 0.05 | 0.05 | 85 | |
| 20260505223332 | 12 | 303 | 0.0 | 0.0 | 0.00 | 0.05 | 0.05 | 85 | |
| 20260505222832 | 12 | 303 | 0.0 | 0.0 | 0.00 | 0.05 | 0.05 | 85 | |
| 20260505222332 | 12 | 303 | 0.0 | 0.0 | 0.00 | 0.05 | 0.05 | 85 | |
| 20260505221832 | 12 | 303 | 0.0 | 0.0 | 0.00 | 0.05 | 0.05 | 85 | |
| 20260505221332 | 12 | 303 | 0.0 | 0.0 | 0.00 | 0.05 | 0.05 | 85 | |
| 20260505220832 | 11 | 303 | 0.0 | 0.0 | 0.00 | 0.05 | 0.05 | 85 | |
| 20260505220332 | 12 | 303 | 0.0 | 0.0 | 0.00 | 0.05 | 0.05 | 85 | |
| 20260505215832 | 12 | 303 | 0.0 | 0.0 | 0.00 | 0.05 | 0.05 | 85 | |
| 20260505215332 | 12 | 303 | 0.0 | 0.0 | 0.00 | 0.05 | 0.05 | 85 | |
| 20260505214832 | 12 | 303 | 0.0 | 0.0 | 0.00 | 0.05 | 0.05 | 85 | |
| 20260505214332 | 12 | 303 | 0.0 | 0.0 | 0.00 | 0.05 | 0.05 | 85 | |
| 20260505213832 | 12 | 303 | 0.0 | 0.0 | 0.00 | 0.05 | 0.05 | 85 | |
| 20260505213332 | 11 | 303 | 0.0 | 0.0 | 0.00 | 0.05 | 0.05 | 85 | |
| 20260505212832 | 12 | 303 | 0.0 | 0.0 | 0.00 | 0.05 | 0.05 | 85 | |
| 20260505212332 | 12 | 303 | 0.0 | 0.0 | 0.00 | 0.05 | 0.05 | 85 | |
| 20260505211832 | 12 | 303 | 0.0 | 0.0 | 0.00 | 0.05 | 0.05 | 85 | |
| 20260505211332 | 12 | 303 | 0.0 | 0.0 | 0.00 | 0.05 | 0.05 | 85 | |
| 20260505210832 | 12 | 303 | 0.0 | 0.0 | 0.00 | 0.05 | 0.05 | 85 | |
| 20260505210332 | 12 | 303 | 0.0 | 0.0 | 0.00 | 0.05 | 0.05 | 85 | |
| 20260505205832 | 12 | 303 | 0.0 | 0.0 | 0.00 | 0.05 | 0.05 | 85 | |
| 20260505205332 | 11 | 303 | 0.0 | 0.0 | 0.00 | 0.05 | 0.05 | 85 | |
| 20260505204832 | 11 | 303 | 0.0 | 0.0 | 0.00 | 0.05 | 0.05 | 85 | |
| 20260505204332 | 11 | 303 | 0.0 | 0.0 | 0.00 | 0.05 | 0.05 | 85 | |
| 20260505203832 | 11 | 303 | 0.0 | 0.0 | 0.00 | 0.05 | 0.05 | 85 | |
| 20260505203332 | 11 | 303 | 0.0 | 0.0 | 0.00 | 0.05 | 0.05 | 85 | |
| 20260505202832 | 11 | 303 | 0.0 | 0.0 | 0.00 | 0.05 | 0.05 | 85 | |
| 20260505202332 | 11 | 303 | 0.0 | 0.0 | 0.00 | 0.05 | 0.05 | 84 | |
| 20260505201832 | 11 | 303 | 0.0 | 0.0 | 0.00 | 0.05 | 0.05 | 84 | |
| 20260505201332 | 12 | 303 | 0.0 | 0.0 | 0.00 | 0.05 | 0.05 | 84 | |
| 20260505200832 | 12 | 303 | 0.0 | 0.0 | 0.00 | 0.05 | 0.05 | 84 | |
| 20260505200332 | 12 | 303 | 0.0 | 0.0 | 0.00 | 0.05 | 0.05 | 84 | |
| 20260505195833 | 12 | 303 | 0.0 | 0.0 | 0.00 | 0.05 | 0.05 | 84 | |
| 20260505195332 | 12 | 303 | 0.0 | 0.0 | 0.00 | 0.05 | 0.05 | 83 | |
| 20260505194832 | 12 | 303 | 0.0 | 0.0 | 0.00 | 0.05 | 0.05 | 83 | |
| 20260505194332 | 13 | 303 | 0.0 | 0.0 | 0.00 | 0.05 | 0.05 | 83 | |
| 20260505193832 | 12 | 303 | 0.0 | 0.0 | 0.00 | 0.05 | 0.05 | 83 | |
| 20260505193332 | 12 | 303 | 0.0 | 0.0 | 0.00 | 0.05 | 0.05 | 83 | |
| 20260505192832 | 13 | 303 | 0.0 | 0.0 | 0.00 | 0.05 | 0.05 | 83 | |
| 20260505192332 | 12 | 303 | 0.0 | 0.0 | 0.00 | 0.05 | 0.05 | 83 | |
| 20260505191832 | 12 | 303 | 0.0 | 0.0 | 0.00 | 0.05 | 0.05 | 83 | |
| 20260505191332 | 12 | 303 | 0.0 | 0.0 | 0.00 | 0.05 | 0.05 | 83 | |
| 20260505190832 | 12 | 303 | 0.0 | 0.0 | 0.00 | 0.05 | 0.05 | 83 | |
| 20260505190332 | 12 | 303 | 0.0 | 0.0 | 0.00 | 0.05 | 0.05 | 83 | |
| 20260505185832 | 12 | 303 | 0.0 | 0.0 | 0.00 | 0.05 | 0.05 | 83 | |
| 20260505185332 | 12 | 303 | 0.0 | 0.0 | 0.00 | 0.05 | 0.05 | 83 | |
| 20260505184832 | 13 | 303 | 0.0 | 0.0 | 0.00 | 0.05 | 0.05 | 83 | |
| 20260505184332 | 12 | 303 | 0.0 | 0.0 | 0.00 | 0.05 | 0.05 | 82 | |
| 20260505183832 | 12 | 303 | 0.0 | 0.0 | 0.00 | 0.08 | 0.05 | 82 | |
| 20260505183332 | 12 | 303 | 0.0 | 0.0 | 0.00 | 0.08 | 0.05 | 82 | |
| 20260505182832 | 12 | 303 | 0.0 | 0.0 | 0.00 | 0.08 | 0.05 | 82 | |
| 20260505182332 | 13 | 303 | 0.0 | 0.0 | 0.00 | 0.08 | 0.05 | 81 | |
| 20260505181832 | 13 | 303 | 0.0 | 0.0 | 0.00 | 0.08 | 0.05 | 81 | |
| 20260505181332 | 13 | 303 | 0.0 | 0.0 | 0.03 | 0.08 | 0.05 | 81 | |
| 20260505180832 | 13 | 303 | 0.0 | 1.6 | 0.03 | 0.08 | 0.05 | 80 | |
| 20260505180332 | 13 | 323 | 0.0 | 3.2 | 0.03 | 0.08 | 0.05 | 80 | |
| 20260505175832 | 15 | 274 | 0.0 | 0.0 | 0.03 | 0.08 | 0.05 | 80 | |
| 20260505175332 | 14 | 274 | 0.0 | 0.0 | 0.03 | 0.08 | 0.05 | 80 | |
| 20260505174832 | 14 | 274 | 0.0 | 6.4 | 0.03 | 0.08 | 0.05 | 79 | |
| 20260505174332 | 14 | 305 | 6.4 | 6.4 | 0.03 | 0.08 | 0.05 | 79 | |
| 20260505173832 | 15 | 334 | 0.0 | 3.2 | 0.03 | 0.08 | 0.05 | 79 | |
| 20260505173332 | 14 | 334 | 0.0 | 3.2 | 0.03 | 0.08 | 0.05 | 78 | |
| 20260505172832 | 15 | 306 | 0.0 | 6.4 | 0.03 | 0.08 | 0.05 | 78 | |
| 20260505172332 | 15 | 317 | 0.0 | 4.8 | 0.03 | 0.08 | 0.05 | 77 | |
| 20260505171832 | 15 | 322 | 1.6 | 4.8 | 0.03 | 0.08 | 0.05 | 77 | |
| 20260505171332 | 15 | 286 | 0.0 | 6.4 | 0.00 | 0.05 | 0.03 | 78 | |
| 20260505170833 | 15 | 241 | 0.0 | 11.3 | 0.00 | 0.05 | 0.03 | 77 | |
| 20260505170332 | 16 | 341 | 11.3 | 11.3 | 0.00 | 0.05 | 0.03 | 77 | |
| 20260505165832 | 16 | 14 | 4.8 | 11.3 | 0.00 | 0.05 | 0.03 | 76 | |
| 20260505165332 | 16 | 264 | 0.0 | 8.0 | 0.00 | 0.05 | 0.03 | 76 | |
| 20260505164833 | 17 | 288 | 0.0 | 8.0 | 0.00 | 0.05 | 0.03 | 76 | |
| 20260505164333 | 17 | 298 | 0.0 | 4.8 | 0.00 | 0.05 | 0.03 | 77 | |
| 20260505163833 | 16 | 282 | 0.0 | 9.7 | 0.00 | 0.05 | 0.03 | 76 | |
| 20260505163333 | 17 | 286 | 1.6 | 8.0 | 0.00 | 0.05 | 0.03 | 76 | |
| 20260505162833 | 16 | 255 | 0.0 | 6.4 | 0.00 | 0.05 | 0.03 | 77 | |
| 20260505162333 | 17 | 236 | 0.0 | 0.0 | 0.00 | 0.05 | 0.03 | 77 | |
| 20260505161833 | 16 | 236 | 0.0 | 9.7 | 0.00 | 0.05 | 0.03 | 77 | |
| 20260505161333 | 17 | 295 | 0.0 | 8.0 | 0.00 | 0.05 | 0.03 | 77 | |
| 20260505160833 | 16 | 274 | 3.2 | 8.0 | 0.00 | 0.05 | 0.03 | 77 | |
| 20260505160333 | 16 | 275 | 0.0 | 4.8 | 0.00 | 0.05 | 0.03 | 78 | |
| 20260505153333 | 17 | 292 | 0.0 | 6.4 | 0.00 | 0.05 | 0.03 | 77 | |
| 20260505152833 | 16 | 323 | 0.0 | 6.4 | 0.00 | 0.05 | 0.03 | 78 | |
| 20260505152333 | 17 | 298 | 0.0 | 8.0 | 0.00 | 0.05 | 0.03 | 79 | |
| 20260505151833 | 16 | 258 | 0.0 | 0.0 | 0.00 | 0.05 | 0.03 | 79 | |
| 20260505151333 | 16 | 258 | 0.0 | 4.8 | 0.00 | 0.05 | 0.03 | 78 | |
| 20260505150833 | 16 | 305 | 3.2 | 9.7 | 0.00 | 0.05 | 0.03 | 78 | |
| 20260505150333 | 16 | 284 | 3.2 | 11.3 | 0.00 | 0.05 | 0.03 | 78 |